When you browse on this site, cookies collect data to enhance your experience and personalize the content and advertising you see.
Visit our Privacy Policy to learn more. By continuing to use the site, you agree to this use of cookies and data.

Tiempo cada hora Lorca

Hoy, 23 Septiembre, Miércoles

Tiempo Temperatura Precipitaciones Viento Presión Humedad
00:00 +25°C° 0 mm 1 mps 730 mmHg 53%
01:00 +24°C° 0 mm 1 mps 730 mmHg 53%
02:00 +22°C° 0 mm 0 mps 729 mmHg 54%
03:00 +21°C° 0 mm 0 mps 729 mmHg 54%
04:00 +23°C° 0 mm 1 mps 729 mmHg 54%
05:00 +23°C° 0 mm 1 mps 729 mmHg 53%
06:00 +23°C° 0 mm 1 mps 729 mmHg 53%
07:00 +25°C° 0 mm 1 mps 730 mmHg 47%
08:00 +26°C° 0 mm 1 mps 730 mmHg 42%
09:00 +28°C° 0 mm 2 mps 730 mmHg 36%
10:00 +28°C° 0 mm 3 mps 730 mmHg 34%
11:00 +29°C° 0 mm 3 mps 730 mmHg 32%
12:00 +30°C° 0 mm 4 mps 730 mmHg 30%
13:00 +32°C° 0 mm 5 mps 730 mmHg 30%
14:00 +32°C° 0 mm 5 mps 729 mmHg 29%
15:00 +33°C° 0 mm 6 mps 729 mmHg 28%
16:00 +32°C° 0 mm 5 mps 729 mmHg 31%
17:00 +30°C° 0 mm 4 mps 729 mmHg 34%
18:00 +29°C° 0 mm 3 mps 729 mmHg 36%
19:00 +28°C° 0 mm 3 mps 730 mmHg 39%
20:00 +27°C° 0 mm 3 mps 730 mmHg 41%
21:00 +27°C° 0 mm 3 mps 731 mmHg 44%
22:00 +26°C° 0 mm 2 mps 731 mmHg 47%
23:00 +25°C° 0 mm 2 mps 730 mmHg 50%

Mañana, 24 Septiembre, Jueves

Tiempo Temperatura Precipitaciones Viento Presión Humedad
00:00 +25°C° 0 mm 2 mps 730 mmHg 53%
01:00 +24°C° 0 mm 1 mps 730 mmHg 55%
02:00 +24°C° 0 mm 1 mps 730 mmHg 58%
03:00 +23°C° 0 mm 1 mps 730 mmHg 60%
04:00 +23°C° 0 mm 1 mps 730 mmHg 62%
05:00 +22°C° 0 mm 1 mps 730 mmHg 64%
06:00 +22°C° 0 mm 1 mps 730 mmHg 66%
07:00 +24°C° 0 mm 1 mps 730 mmHg 59%
08:00 +25°C° 0 mm 1 mps 731 mmHg 52%
09:00 +27°C° 0 mm 1 mps 731 mmHg 45%
10:00 +29°C° 0 mm 2 mps 731 mmHg 41%
11:00 +30°C° 0 mm 3 mps 731 mmHg 37%
12:00 +32°C° 0 mm 4 mps 731 mmHg 33%
13:00 +33°C° 0 mm 5 mps 731 mmHg 32%
14:00 +33°C° 0 mm 6 mps 730 mmHg 32%
15:00 +33°C° 0 mm 7 mps 730 mmHg 31%
16:00 +32°C° 0 mm 6 mps 730 mmHg 33%
17:00 +30°C° 0 mm 6 mps 730 mmHg 35%
18:00 +29°C° 0 mm 5 mps 730 mmHg 38%
19:00 +29°C° 0 mm 5 mps 730 mmHg 40%
20:00 +28°C° 0 mm 5 mps 731 mmHg 42%
21:00 +27°C° 0 mm 5 mps 731 mmHg 45%
22:00 +27°C° 0 mm 5 mps 731 mmHg 47%
23:00 +26°C° 0 mm 5 mps 731 mmHg 49%

Pasado mañana, 25 Septiembre, Viernes

Tiempo Temperatura Precipitaciones Viento Presión Humedad
00:00 +26°C° 0 mm 5 mps 731 mmHg 52%
01:00 +25°C° 0 mm 5 mps 731 mmHg 54%
02:00 +23°C° 0 mm 5 mps 731 mmHg 57%
03:00 +23°C° 0 mm 4 mps 731 mmHg 59%
04:00 +22°C° 0 mm 4 mps 731 mmHg 61%
05:00 +21°C° 0 mm 4 mps 731 mmHg 63%
06:00 +21°C° 0 mm 3 mps 731 mmHg 65%
07:00 +22°C° 0 mm 4 mps 732 mmHg 53%
08:00 +23°C° 0 mm 5 mps 732 mmHg 41%
09:00 +26°C° 0 mm 6 mps 733 mmHg 29%
10:00 +27°C° 0 mm 6 mps 733 mmHg 25%
11:00 +28°C° 0 mm 7 mps 733 mmHg 21%
12:00 +29°C° 0 mm 7 mps 734 mmHg 17%
13:00 +29°C° 0 mm 7 mps 733 mmHg 17%
14:00 +29°C° 0 mm 7 mps 733 mmHg 17%
15:00 +30°C° 0 mm 6 mps 733 mmHg 18%
16:00 +28°C° 0 mm 5 mps 733 mmHg 23%
17:00 +26°C° 0 mm 5 mps 733 mmHg 28%
18:00 +23°C° 0 mm 4 mps 734 mmHg 33%
19:00 +22°C° 0 mm 4 mps 734 mmHg 35%
20:00 +21°C° 0 mm 4 mps 735 mmHg 36%
21:00 +20°C° 0 mm 4 mps 736 mmHg 38%
22:00 +20°C° 0 mm 4 mps 736 mmHg 37%
23:00 +19°C° 0 mm 4 mps 736 mmHg 37%

26 Septiembre, Sábado

Tiempo Temperatura Precipitaciones Viento Presión Humedad
00:00 +17°C° 0 mm 5 mps 736 mmHg 36%
01:00 +17°C° 0 mm 4 mps 736 mmHg 37%
02:00 +17°C° 0 mm 4 mps 735 mmHg 38%
03:00 +15°C° 0 mm 4 mps 735 mmHg 39%
04:00 +15°C° 0 mm 4 mps 735 mmHg 40%
05:00 +14°C° 0 mm 4 mps 736 mmHg 41%
06:00 +14°C° 0 mm 4 mps 736 mmHg 42%
07:00 +15°C° 0 mm 4 mps 736 mmHg 38%
08:00 +16°C° 0 mm 5 mps 736 mmHg 34%
09:00 +19°C° 0 mm 5 mps 736 mmHg 30%
10:00 +20°C° 0 mm 5 mps 736 mmHg 27%
11:00 +22°C° 0 mm 4 mps 736 mmHg 25%
12:00 +23°C° 0 mm 4 mps 736 mmHg 22%
13:00 +25°C° 0 mm 4 mps 736 mmHg 22%
14:00 +25°C° 0 mm 5 mps 735 mmHg 22%
15:00 +26°C° 0 mm 5 mps 735 mmHg 22%
16:00 +25°C° 0 mm 5 mps 735 mmHg 26%
17:00 +23°C° 0 mm 4 mps 734 mmHg 30%
18:00 +21°C° 0 mm 4 mps 734 mmHg 34%
19:00 +21°C° 0 mm 4 mps 735 mmHg 36%
20:00 +20°C° 0 mm 3 mps 735 mmHg 37%
21:00 +19°C° 0 mm 3 mps 735 mmHg 39%
22:00 +19°C° 0 mm 3 mps 735 mmHg 40%
23:00 +19°C° 0 mm 3 mps 734 mmHg 41%

27 Septiembre, Domingo

Tiempo Temperatura Precipitaciones Viento Presión Humedad
00:00 +18°C° 0 mm 2 mps 734 mmHg 42%
01:00 +18°C° 0 mm 2 mps 734 mmHg 43%
02:00 +17°C° 0 mm 2 mps 733 mmHg 45%
03:00 +17°C° 0 mm 2 mps 733 mmHg 47%
04:00 +16°C° 0 mm 2 mps 733 mmHg 47%
05:00 +16°C° 0 mm 2 mps 733 mmHg 48%
06:00 +16°C° 0 mm 1 mps 733 mmHg 48%
07:00 +18°C° 0 mm 2 mps 733 mmHg 43%
08:00 +20°C° 0 mm 2 mps 733 mmHg 39%
09:00 +22°C° 0 mm 3 mps 733 mmHg 34%
10:00 +24°C° 0 mm 3 mps 733 mmHg 32%
11:00 +25°C° 0 mm 3 mps 733 mmHg 30%
12:00 +26°C° 0 mm 3 mps 732 mmHg 28%
13:00 +27°C° 0 mm 3 mps 732 mmHg 28%
14:00 +28°C° 0 mm 4 mps 731 mmHg 27%
15:00 +28°C° 0 mm 4 mps 731 mmHg 27%
16:00 +27°C° 0 mm 4 mps 731 mmHg 30%
17:00 +26°C° 0 mm 4 mps 731 mmHg 33%
18:00 +25°C° 0 mm 3 mps 731 mmHg 36%
19:00 +24°C° 0 mm 3 mps 731 mmHg 37%
20:00 +24°C° 0 mm 3 mps 731 mmHg 38%
21:00 +23°C° 0 mm 2 mps 732 mmHg 39%
22:00 +23°C° 0 mm 2 mps 732 mmHg 41%
23:00 +21°C° 0 mm 2 mps 732 mmHg 42%

28 Septiembre, Lunes

Tiempo Temperatura Precipitaciones Viento Presión Humedad
00:00 +21°C° 0 mm 2 mps 732 mmHg 44%
01:00 +20°C° 0 mm 2 mps 731 mmHg 46%
02:00 +20°C° 0 mm 2 mps 731 mmHg 48%
03:00 +19°C° 0 mm 2 mps 731 mmHg 50%
04:00 +19°C° 0 mm 2 mps 731 mmHg 52%
05:00 +19°C° 0 mm 1 mps 731 mmHg 54%
06:00 +19°C° 0 mm 1 mps 731 mmHg 56%
07:00 +20°C° 0 mm 1 mps 731 mmHg 51%
08:00 +21°C° 0 mm 2 mps 732 mmHg 45%
09:00 +23°C° 0 mm 2 mps 732 mmHg 39%
10:00 +24°C° 0 mm 2 mps 732 mmHg 37%
11:00 +25°C° 0 mm 2 mps 732 mmHg 35%
12:00 +26°C° 0 mm 2 mps 732 mmHg 32%
13:00 +26°C° 0 mm 2 mps 731 mmHg 34%
14:00 +27°C° 0 mm 3 mps 731 mmHg 35%
15:00 +27°C° 0 mm 3 mps 730 mmHg 37%
16:00 +25°C° 0 mm 3 mps 730 mmHg 44%
17:00 +24°C° 0 mm 2 mps 730 mmHg 51%
18:00 +23°C° 0 mm 2 mps 730 mmHg 58%
19:00 +21°C° 0 mm 2 mps 731 mmHg 61%
20:00 +21°C° 0 mm 2 mps 731 mmHg 64%
21:00 +21°C° 0 mm 1 mps 731 mmHg 68%
22:00 +21°C° 0 mm 1 mps 731 mmHg 70%
23:00 +19°C° 0 mm 2 mps 731 mmHg 72%
Mostrar más